STARLINK-1135 (45049 NORAD) Tracking and Keplerian Element Data

This shows tracking and keplerian element data for the satellite.

Feedback or suggestion? Click here.




ElementValue
Catalog45049
NameSTARLINK-1135
Epoch Orbit933
Epoch Day87.91667824
Epoch Year2020
RAAN320.576
Inclination52.9985
Eccentricity0.0001889
Argument of Perigee76.7925
Mean Anonmoly304.731
Mean Motion15.05618913
Decay Rate-0.00015854
L11 45049U 20006F 20087.91667824 -.00015854 00000-0 -10702-2 0 9997
L22 45049 52.9985 320.5760 0001889 76.7925 304.7310 15.05618913 9339

Live tracking and technical data element details for STARLINK-1135 (NORAD 45049). STARLINK-1135 can be tracked NOW for your location showing map with azimuth and elevation plus other details from your city location.

Track the satellite on the map from your city or location and see movement details for azimuth, elevation, latitude, longitude, range, height, and movement on the map or in text.







IsCatalogInMostPopularTable: catalog: 45049, numindb: 10
Update: records affected: 1



GetName: 45049 STARLINK-1135

Hit Count: updated at: Sat, 28 Mar 2020 21:06:54 GMT